, MO

(GMT )
Kansas City

Weather History for KMKC - December, 2013

Change the Weather History Date:

Sunday, December 15, 2013

  Actual Average Record
Temperature  
Mean Temperature 34 °F -  
Max Temperature 46 °F 40 °F 64 °F (2002)
Min Temperature 21 °F 24 °F 5 °F (2008)
Degree Days  
Heating Degree Days 32    
Moisture  
Dew Point 23 °F    
Average Humidity 66    
Maximum Humidity 81    
Minimum Humidity 47    
Precipitation  
Precipitation 0.00 in - - ()
Sea Level Pressure  
Sea Level Pressure 30.09 in    
Wind  
Wind Speed 4 mph (WSW)    
Max Wind Speed 12 mph    
Max Gust Speed -    
Visibility 8 miles    
Events      
Averages and records for this station are not official NWS values.
T = Trace of Precipitation, MM = Missing Value Source: NWS Daily Summary

Daily Weather History Graph

Daily Weather History Graph

Search for Another Location

Airport or City:

Trip Planner

Search our weather history database for the weather conditions in past years. The results will help you decide how hot, cold, wet, or windy it might be!

Date:

Astronomy

Dec. 15, 2013 Rise Set
Actual Time 7:30 AM CST 4:56 PM CST
Civil Twilight 7:00 AM CST 5:26 PM CST
Nautical Twilight 6:26 AM CST 6:00 PM CST
Astronomical Twilight 5:54 AM CST 6:32 PM CST
Moon 4:01 PM CST (12/15) 5:48 AM CST (12/15)
Length of Visible Light 10h 26m
Length of Day
9h 26m
Waxing Gibbous, 98% of the Moon is Illuminated
Dec 15
Waxing Gibbous
Dec 17
Full
Dec 25
Last Quarter
Jan 1
New
Jan 7
First Quarter

Hourly Weather History & Observations

Time (CST) Temp. Windchill Dew Point Humidity Pressure Visibility Wind Dir Wind Speed Gust Speed Precip Events Conditions
12:54 AM 21.0 °F 14.6 °F 16.0 °F 81% 30.24 in 6.0 mi SW 4.6 mph - N/A   Haze
1:54 AM 21.0 °F 16.2 °F 16.0 °F 81% 30.22 in 6.0 mi WSW 3.5 mph - N/A   Haze
2:54 AM 21.0 °F 16.2 °F 16.0 °F 81% 30.24 in 6.0 mi WSW 3.5 mph - N/A   Haze
3:54 AM 21.0 °F 14.6 °F 16.0 °F 81% 30.22 in 5.0 mi SW 4.6 mph - N/A   Haze
4:54 AM 21.9 °F - 16.0 °F 78% 30.20 in 5.0 mi Calm Calm - N/A   Haze
5:54 AM 21.9 °F 13.4 °F 16.0 °F 78% 30.18 in 6.0 mi SW 6.9 mph - N/A   Haze
6:54 AM 21.9 °F 15.7 °F 16.0 °F 78% 30.16 in 6.0 mi SSW 4.6 mph - N/A   Haze
7:54 AM 23.0 °F 17.0 °F 17.1 °F 78% 30.14 in 4.0 mi SW 4.6 mph - N/A   Haze
8:54 AM 28.9 °F - 21.0 °F 72% 30.13 in 5.0 mi Calm Calm - N/A   Haze
9:54 AM 34.0 °F 26.6 °F 24.1 °F 67% 30.13 in 6.0 mi WSW 9.2 mph - N/A   Haze
10:54 AM 37.0 °F 29.3 °F 24.1 °F 59% 30.12 in 8.0 mi WSW 11.5 mph - N/A   Clear
11:54 AM 39.9 °F 33.4 °F 25.0 °F 55% 30.09 in 9.0 mi West 10.4 mph - N/A   Clear
12:54 PM 41.0 °F 36.4 °F 26.1 °F 55% 30.05 in 10.0 mi WSW 6.9 mph - N/A   Clear
1:54 PM 44.1 °F 40.8 °F 28.0 °F 53% 30.06 in 10.0 mi WNW 5.8 mph - N/A   Clear
2:54 PM 46.0 °F 43.9 °F 28.0 °F 50% 30.06 in 10.0 mi WNW 4.6 mph - N/A   Clear
3:54 PM 45.0 °F - 28.0 °F 52% 30.04 in 10.0 mi Calm Calm - N/A   Clear
4:54 PM 41.0 °F - 28.9 °F 62% 30.02 in 10.0 mi Calm Calm - N/A   Mostly Cloudy
5:54 PM 41.0 °F - 28.9 °F 62% 30.01 in 10.0 mi Calm Calm - N/A   Mostly Cloudy
6:54 PM 39.9 °F - 28.9 °F 65% 30.00 in 9.0 mi Calm Calm - N/A   Overcast
7:54 PM 37.9 °F - 28.9 °F 70% 29.99 in 9.0 mi Calm Calm - N/A   Clear
8:54 PM 36.0 °F - 28.9 °F 76% 29.99 in 8.0 mi Calm Calm - N/A   Partly Cloudy
9:54 PM 39.9 °F 35.1 °F 27.0 °F 60% 29.98 in 10.0 mi SW 6.9 mph - N/A   Clear
10:54 PM 39.9 °F - 25.0 °F 55% 29.97 in 10.0 mi Calm Calm - N/A   Clear
11:54 PM 44.1 °F 40.8 °F 25.0 °F 47% 29.97 in 10.0 mi SW 5.8 mph - N/A   Clear